This is the latest recevied weather packets stored in our database for station/object DO2HBA-6. If no packets are shown the sender has not sent any weather packets the latest 10 day(s).
| Time | Temp. | Humidity | Pressure | Rain* | Wind** | Luminosity | Snow |
|---|---|---|---|---|---|---|---|
| 1777869159 | 10.56° C | 10% | 1014.7 hPa | 0 mm | - | - | - |
| 1777868859 | 10.56° C | 10% | 1014.8 hPa | 0 mm | - | - | - |
| 1777868559 | 10.56° C | 10% | 1014.6 hPa | 0 mm | - | - | - |
| 1777868258 | 10.56° C | 10% | 1014.5 hPa | 0 mm | - | - | - |
| 1777867958 | 10.56° C | 10% | 1014.6 hPa | 0 mm | - | - | - |
| 1777867658 | 10° C | 10% | 1014.6 hPa | 0 mm | - | - | - |
| 1777867358 | 10° C | 10% | 1014.5 hPa | 0 mm | - | - | - |
| 1777867057 | 10.56° C | 10% | 1014.4 hPa | 0 mm | - | - | - |
| 1777866757 | 10.56° C | 10% | 1014.5 hPa | 0 mm | - | - | - |
| 1777866457 | 10.56° C | 10% | 1014.5 hPa | 0 mm | - | - | - |
| 1777866156 | 11.11° C | 10% | 1014.7 hPa | 0 mm | - | - | - |
| 1777865856 | 11.11° C | 10% | 1014.6 hPa | 0 mm | - | - | - |
| 1777865556 | 12.22° C | 10% | 1014.5 hPa | 0 mm | - | - | - |
| 1777865256 | 12.22° C | 10% | 1014.5 hPa | 0 mm | - | - | - |
| 1777864955 | 12.78° C | 10% | 1014.6 hPa | 0 mm | - | - | - |
| 1777864655 | 12.78° C | 10% | 1014.7 hPa | 0 mm | - | - | - |
| 1777864355 | 12.78° C | 10% | 1014.8 hPa | 0 mm | - | - | - |
| 1777864054 | 12.78° C | 10% | 1014.7 hPa | 0 mm | - | - | - |
| 1777863754 | 12.78° C | 10% | 1014.6 hPa | 0 mm | - | - | - |
| 1777863454 | 12.78° C | 10% | 1014.5 hPa | 0 mm | - | - | - |
| 1777863153 | 12.22° C | 10% | 1014.6 hPa | 0 mm | - | - | - |
| 1777862853 | 12.22° C | 10% | 1014.6 hPa | 0 mm | - | - | - |
| 1777862553 | 12.22° C | 10% | 1014.5 hPa | 0 mm | - | - | - |
| 1777862253 | 12.22° C | 10% | 1014.4 hPa | 0 mm | - | - | - |
| 1777861952 | 12.22° C | 10% | 1014.3 hPa | 0 mm | - | - | - |
* Rain latest hour (hover to see other rain measurements)
** Current wind speed in m/s (hover to see current wind gust speed)